User: anonymous   Login
Location: Gungolding
(48.9246°N, 11.3502°E)
Time: 11:35:53
(UTC+02:00)
Language:

Vanguard 3 - Orbit

View from above orbital plane
View from above orbital plane
View from above satellite
View from above satellite

Ground track
Ground track

The orbit data is extracted from the following two-line orbital elements,

1    20U 59007A   20094.35958036 +.00000029 +00000-0 -29542-5 0  9996
2    20 033.3515 089.5444 1666526 228.3851 116.1677 11.55679086221911
Epoch (UTC): 03 April 2020 08:37:47
Eccentricity: 0.1666526
inclination: 33.3515°
perigee height: 508 km
apogee height: 3263 km
right ascension of ascending node: 89.5444°
argument of perigee: 228.3851°
revolutions per day: 11.55679086
mean anomaly at epoch: 116.1677°
orbit number at epoch: 22191

The dashed part of the orbit path shows where the satellite is in the earth's shadow,  

DLR